Hourly Weather Potosi

Today, 30 September, Wednesday

Time Temperature Precipitation Wind Pressure Humidity
00:00 +10°C° 0.1 mm 1 mps 467 mmHg 57%
01:00 +10°C° 0.1 mm 1 mps 467 mmHg 56%
02:00 +9°C° 0.1 mm 1 mps 467 mmHg 56%
03:00 +9°C° 0 mm 1 mps 467 mmHg 53%
04:00 +8°C° 0 mm 1 mps 466 mmHg 51%
05:00 +8°C° 0 mm 1 mps 466 mmHg 49%
06:00 +9°C° 0 mm 1 mps 467 mmHg 42%
07:00 +9°C° 0 mm 1 mps 467 mmHg 36%
08:00 +10°C° 0 mm 1 mps 468 mmHg 29%
09:00 +11°C° 0 mm 1 mps 469 mmHg 28%
10:00 +12°C° 0 mm 2 mps 469 mmHg 28%
11:00 +14°C° 0 mm 2 mps 470 mmHg 28%
12:00 +15°C° 0 mm 2 mps 470 mmHg 27%
13:00 +14°C° 0 mm 3 mps 470 mmHg 26%
14:00 +16°C° 0 mm 3 mps 470 mmHg 25%
15:00 +14°C° 0.2 mm 3 mps 469 mmHg 32%
16:00 +13°C° 0.2 mm 3 mps 468 mmHg 38%
17:00 +12°C° 0.2 mm 3 mps 467 mmHg 44%
18:00 +12°C° 0.9 mm 2 mps 466 mmHg 51%
19:00 +11°C° 0.9 mm 1 mps 466 mmHg 57%
20:00 +10°C° 0.9 mm 1 mps 466 mmHg 63%
21:00 +10°C° 0.2 mm 1 mps 466 mmHg 61%
22:00 +10°C° 0.2 mm 1 mps 467 mmHg 59%
23:00 +10°C° 0.2 mm 1 mps 468 mmHg 57%

Tomorrow, 1 October, Thursday

Time Temperature Precipitation Wind Pressure Humidity
00:00 +10°C° 0 mm 1 mps 467 mmHg 57%
01:00 +10°C° 0 mm 1 mps 467 mmHg 57%
02:00 +9°C° 0 mm 1 mps 466 mmHg 57%
03:00 +9°C° 0 mm 1 mps 466 mmHg 54%
04:00 +9°C° 0 mm 1 mps 466 mmHg 50%
05:00 +8°C° 0 mm 1 mps 466 mmHg 47%
06:00 +9°C° 0 mm 1 mps 467 mmHg 41%
07:00 +10°C° 0 mm 1 mps 467 mmHg 36%
08:00 +10°C° 0 mm 1 mps 468 mmHg 30%
09:00 +11°C° 0 mm 1 mps 469 mmHg 29%
10:00 +13°C° 0 mm 1 mps 469 mmHg 28%
11:00 +14°C° 0 mm 1 mps 470 mmHg 27%
12:00 +14°C° 0 mm 2 mps 470 mmHg 28%
13:00 +15°C° 0 mm 2 mps 469 mmHg 28%
14:00 +16°C° 0 mm 2 mps 469 mmHg 28%
15:00 +12°C° 1.1 mm 3 mps 467 mmHg 42%
16:00 +10°C° 1.1 mm 4 mps 465 mmHg 56%
17:00 +7°C° 1.1 mm 5 mps 462 mmHg 70%
18:00 +6°C° 3 mm 4 mps 463 mmHg 71%
19:00 +7°C° 3 mm 3 mps 463 mmHg 72%
20:00 +6°C° 3 mm 2 mps 464 mmHg 72%
21:00 +7°C° 0 mm 2 mps 464 mmHg 71%
22:00 +7°C° 0 mm 2 mps 465 mmHg 69%
23:00 +7°C° 0 mm 2 mps 465 mmHg 67%

Day after tomorrow, 2 October, Friday

Time Temperature Precipitation Wind Pressure Humidity
00:00 +8°C° 0 mm 1 mps 465 mmHg 68%
01:00 +8°C° 0 mm 1 mps 465 mmHg 68%
02:00 +8°C° 0 mm 1 mps 465 mmHg 69%
03:00 +8°C° 0 mm 1 mps 465 mmHg 68%
04:00 +8°C° 0 mm 1 mps 465 mmHg 68%
05:00 +8°C° 0 mm 1 mps 465 mmHg 68%
06:00 +8°C° 0 mm 1 mps 466 mmHg 65%
07:00 +9°C° 0 mm 1 mps 467 mmHg 62%
08:00 +10°C° 0 mm 1 mps 467 mmHg 58%
09:00 +11°C° 0.1 mm 1 mps 468 mmHg 55%
10:00 +12°C° 0.1 mm 2 mps 469 mmHg 51%
11:00 +12°C° 0.1 mm 3 mps 469 mmHg 48%
12:00 +12°C° 1.2 mm 3 mps 469 mmHg 50%
13:00 +12°C° 1.2 mm 4 mps 468 mmHg 53%
14:00 +12°C° 1.2 mm 4 mps 468 mmHg 55%
15:00 +11°C° 3 mm 4 mps 467 mmHg 63%
16:00 +8°C° 3 mm 4 mps 465 mmHg 70%
17:00 +7°C° 3 mm 4 mps 464 mmHg 78%
18:00 +6°C° 1.7 mm 4 mps 465 mmHg 80%
19:00 +6°C° 1.7 mm 4 mps 465 mmHg 82%
20:00 +5°C° 1.7 mm 3 mps 465 mmHg 83%
21:00 +5°C° 0.5 mm 3 mps 466 mmHg 82%
22:00 +6°C° 0.5 mm 4 mps 466 mmHg 81%
23:00 +6°C° 0.5 mm 4 mps 467 mmHg 80%

3 October, Saturday

Time Temperature Precipitation Wind Pressure Humidity
00:00 +5°C° 0 mm 3 mps 466 mmHg 81%
01:00 +6°C° 0 mm 2 mps 466 mmHg 81%
02:00 +6°C° 0 mm 2 mps 466 mmHg 82%
03:00 +5°C° 0 mm 2 mps 466 mmHg 83%
04:00 +5°C° 0 mm 2 mps 466 mmHg 84%
05:00 +5°C° 0 mm 2 mps 466 mmHg 85%
06:00 +6°C° 0 mm 2 mps 467 mmHg 82%
07:00 +6°C° 0 mm 2 mps 467 mmHg 80%
08:00 +7°C° 0 mm 2 mps 468 mmHg 77%
09:00 +8°C° 0.1 mm 2 mps 468 mmHg 71%
10:00 +9°C° 0.1 mm 3 mps 469 mmHg 65%
11:00 +10°C° 0.1 mm 3 mps 470 mmHg 59%
12:00 +11°C° 0.3 mm 4 mps 469 mmHg 57%
13:00 +11°C° 0.3 mm 4 mps 469 mmHg 55%
14:00 +12°C° 0.3 mm 5 mps 469 mmHg 53%
15:00 +10°C° 0.1 mm 6 mps 468 mmHg 56%
16:00 +10°C° 0.1 mm 6 mps 468 mmHg 58%
17:00 +9°C° 0.1 mm 7 mps 467 mmHg 61%
18:00 +8°C° 0 mm 5 mps 468 mmHg 63%
19:00 +8°C° 0 mm 4 mps 468 mmHg 66%
20:00 +8°C° 0 mm 3 mps 468 mmHg 68%
21:00 +8°C° 0 mm 3 mps 468 mmHg 71%
22:00 +7°C° 0 mm 3 mps 468 mmHg 74%
23:00 +7°C° 0 mm 3 mps 468 mmHg 77%

4 October, Sunday

Time Temperature Precipitation Wind Pressure Humidity
00:00 +7°C° 0 mm 2 mps 468 mmHg 79%
01:00 +6°C° 0 mm 2 mps 467 mmHg 80%
02:00 +6°C° 0 mm 2 mps 467 mmHg 81%
03:00 +7°C° 0 mm 1 mps 467 mmHg 83%
04:00 +7°C° 0 mm 1 mps 467 mmHg 84%
05:00 +6°C° 0 mm 1 mps 466 mmHg 86%
06:00 +7°C° 0 mm 1 mps 467 mmHg 81%
07:00 +8°C° 0 mm 1 mps 468 mmHg 76%
08:00 +8°C° 0 mm 1 mps 468 mmHg 72%
09:00 +10°C° 0 mm 1 mps 469 mmHg 63%
10:00 +10°C° 0 mm 2 mps 470 mmHg 55%
11:00 +13°C° 0 mm 2 mps 471 mmHg 47%
12:00 +12°C° 0.1 mm 3 mps 470 mmHg 44%
13:00 +13°C° 0.1 mm 4 mps 470 mmHg 42%
14:00 +14°C° 0.1 mm 5 mps 470 mmHg 39%
15:00 +13°C° 0.1 mm 6 mps 470 mmHg 42%
16:00 +13°C° 0.1 mm 6 mps 469 mmHg 44%
17:00 +11°C° 0.1 mm 7 mps 469 mmHg 46%
18:00 +11°C° 0.1 mm 6 mps 469 mmHg 49%
19:00 +11°C° 0.1 mm 4 mps 469 mmHg 51%
20:00 +10°C° 0.1 mm 3 mps 469 mmHg 53%
21:00 +10°C° 0 mm 3 mps 469 mmHg 56%
22:00 +9°C° 0 mm 2 mps 469 mmHg 59%
23:00 +9°C° 0 mm 2 mps 468 mmHg 62%

5 October, Monday

Time Temperature Precipitation Wind Pressure Humidity
00:00 +8°C° 0 mm 2 mps 468 mmHg 65%
01:00 +9°C° 0 mm 1 mps 467 mmHg 68%
02:00 +8°C° 0 mm 1 mps 467 mmHg 71%
03:00 +8°C° 0 mm 1 mps 467 mmHg 73%
04:00 +7°C° 0 mm 1 mps 467 mmHg 75%
05:00 +6°C° 0 mm 0 mps 466 mmHg 76%
06:00 +8°C° 0 mm 1 mps 467 mmHg 71%
07:00 +9°C° 0 mm 1 mps 468 mmHg 65%
08:00 +10°C° 0 mm 1 mps 469 mmHg 60%
09:00 +10°C° 0 mm 2 mps 470 mmHg 51%
10:00 +11°C° 0 mm 3 mps 470 mmHg 43%
11:00 +13°C° 0 mm 4 mps 471 mmHg 34%
12:00 +14°C° 0 mm 5 mps 471 mmHg 33%
13:00 +14°C° 0 mm 7 mps 471 mmHg 31%
14:00 +15°C° 0 mm 8 mps 471 mmHg 30%
15:00 +13°C° 0 mm 9 mps 470 mmHg 33%
16:00 +12°C° 0 mm 9 mps 470 mmHg 35%
17:00 +12°C° 0 mm 9 mps 469 mmHg 38%
18:00 +10°C° 0 mm 8 mps 468 mmHg 44%
19:00 +9°C° 0 mm 7 mps 468 mmHg 49%
20:00 +8°C° 0 mm 5 mps 468 mmHg 54%
21:00 +7°C° 0 mm 4 mps 467 mmHg 57%
22:00 +8°C° 0 mm 3 mps 467 mmHg 61%
23:00 +7°C° 0 mm 2 mps 467 mmHg 64%
Show more